Flag for Moldova Weather past 2 weeks in Bălți, Moldova

Now
39 °F

Low clouds.


Feels Like: 33 °F
Forecast: 38 / 53 °F
Wind: 9 mph from North

Location: Baltsi-Leadoveni - The North of Moldova

Current Time: Feb 28, 2015 at 4:22:10 PM

Latest Report: Feb 28, 2015 at 4:00 PM


Visibility: N/A

Pressure: 30.07 "Hg

Humidity: 93%

Dew point: 37 °F

Location of BălțiLocation

Historic Weather in Bălți — Graph

°F

Bălți temperature yesterday

Maximum temperature yesterday: 50 °F (at 3:00 PM)
Minimum temperature yesterday: 37 °F (at 6:00 AM)
Average temperature yesterday: 42 °F

Past Weeks' High & Low Weather Summary

 TemperatureHumidityPressure
High52 °F (Feb 23, 2:00 PM)100% (Feb 14, 6:30 AM)30.74 "Hg (Feb 14, 6:30 AM)
Low10 °F (Feb 17, 7:00 AM)18% (Feb 18, 2:30 PM)29.80 "Hg (Feb 23, 3:00 PM)
Average34 °F81%30.16 "Hg
* Reported Feb 13 3:00 PM — Feb 28 3:00 PM, Bălți, Weather by CustomWeather, © 2015

Note: Actual official high and low records may vary slightly from our data, if they occured in-between our weather recording intervals... More about our weather records

Advertising

Bălți weather history for previous 24 hours

 ConditionsComfort  
Time TempWeatherWind HumidityBarometerVisibility
3:00 PM
Sat, Feb 28
39 °FLow clouds.9 mph93%30.07 "HgN/A
2:30 PM39 °FLow clouds.8 mph93%30.07 "HgN/A
2:00 PM39 °FLow clouds.7 mph93%30.07 "Hg4 mi
1:30 PM39 °FLow clouds.8 mph93%30.07 "Hg4 mi
1:00 PM39 °FLow clouds.7 mph93%30.07 "Hg4 mi
12:30 PM39 °FFog.7 mph93%30.07 "Hg3 mi
12:00 PM39 °FFog.5 mph93%30.07 "Hg3 mi
11:00 AM37 °FFog.6 mph100%30.07 "Hg1 mi
10:30 AM37 °FFog.8 mph100%30.04 "Hg1 mi
10:00 AM37 °FFog.10 mph100%30.04 "Hg0 mi
9:00 AM36 °FFog.12 mph100%30.04 "Hg0 mi
8:00 AM36 °FChilly.12 mph100%30.01 "Hg0 mi
7:00 AM34 °FChilly.10 mph100%30.01 "Hg0 mi
6:00 AM32 °FChilly.10 mph100%30.01 "Hg1 mi
5:00 AM34 °FChilly.7 mph93%29.98 "Hg1 mi
4:00 AM36 °FChilly.7 mph100%29.98 "Hg2 mi
3:30 AM37 °FChilly.6 mph93%29.98 "Hg5 mi
3:00 AM37 °FChilly.6 mph100%29.98 "Hg4 mi
2:00 AM39 °FChilly.9 mph93%30.01 "HgN/A
1:30 AM39 °FChilly.10 mph93%30.01 "HgN/A
1:00 AM39 °FChilly.9 mph93%30.01 "HgN/A
12:00 AM37 °FChilly.8 mph100%30.01 "Hg5 mi
11:00 PM
Fri, Feb 27
39 °FChilly.6 mph93%30.01 "HgN/A
10:30 PM39 °FChilly.5 mph93%30.01 "HgN/A
10:00 PM39 °FChilly.5 mph93%30.01 "HgN/A
9:00 PM41 °FQuite cool.6 mph93%30.01 "HgN/A
8:30 PM41 °FQuite cool.6 mph93%30.01 "HgN/A
8:00 PM41 °FQuite cool.7 mph93%30.01 "HgN/A
7:30 PM43 °FQuite cool.7 mph87%30.01 "HgN/A
7:00 PM43 °FQuite cool.8 mph87%30.01 "HgN/A
6:00 PM45 °FQuite cool.6 mph87%30.01 "HgN/A
5:30 PM45 °FScattered clouds.6 mph87%30.01 "HgN/A
5:00 PM46 °FScattered clouds.6 mph82%30.01 "HgN/A
4:00 PM48 °FScattered clouds.6 mph82%30.01 "HgN/A
Weather by CustomWeather, © 2015

See weather overviewHow to use our weather pages